sat.trackr.live / text

‹ back to catalog

STARLINK-31642

NORAD 59726 · 2024-088U

PAYLOAD ACTIVE UNKNOWN

§ Identity

Operator
Country
US
Launch date
2024-05-10
Launch site
AFWTR
Launch vehicle
Mass (kg)
RCS (m²)

Purposes: comms

External: N2YO · Heavens-Above · Gunter

§ Orbital elements

Epoch: 2026-09-21T09:22:55.893216Z

Period
94.01 min
Inclination
53.1611°
Eccentricity
0.0001282
Mean motion
15.31699613 rev/d
Perigee alt
469.9 km
Apogee alt
471.6 km
Semi-major
6,848.9 km
B*
3.2749e-5
RAAN
309.5674°
Arg perigee
75.8539°
Mean anomaly
284.2605°
Rev number
13,366

§ Raw data

STARLINK-316421 59726U 24088U   26264.39092469  .00000651  00000+0  32749-4 0  99932 59726  53.1611 309.5674 0001282  75.8539 284.2605 15.31699613133662

JSON: /api/v1/satellites/59726 · /tle

For live sub-satellite position, see the globe view (requires WebGL).

§ Visibility from observer

Set your observer location to see the next 7 days of passes ≥ 10°. The values pass through the URL so the page stays shareable.

No JS? Fill the form by hand. The geolocation button needs JavaScript.